| time (UTC) | temp F | wind direction | speed MPH | gust MPH | rain 1hr in | rain 24hr in | rain mn in | humidity % | barometer mb |
| 20260509182100 | 68 | 154 | 0.0 | 0.0 | 0.00 | 0.07 | 0.01 | 99 | 1014.7 |
| 20260509181052 | 68 | 154 | 0.0 | 0.0 | 0.00 | 0.07 | 0.01 | 99 | 1014.7 |
| 20260509180115 | 68 | 154 | 0.0 | 0.0 | 0.00 | 0.07 | 0.01 | 100 | 1014.7 |
| 20260509175038 | 68 | 154 | 0.0 | 0.0 | 0.00 | 0.07 | 0.01 | 100 | 1014.9 |
| 20260509174053 | 68 | 154 | 0.0 | 1.0 | 0.00 | 0.07 | 0.01 | 100 | 1014.6 |
| 20260509173045 | 67 | 155 | 0.0 | 0.0 | 0.00 | 0.07 | 0.01 | 100 | 1014.7 |
| 20260509172100 | 67 | 155 | 0.0 | 0.0 | 0.00 | 0.07 | 0.01 | 100 | 1014.9 |
| 20260509171055 | 67 | 151 | 0.0 | 0.0 | 0.00 | 0.07 | 0.01 | 100 | 1014.7 |
| 20260509170119 | 67 | 151 | 0.0 | 0.0 | 0.00 | 0.07 | 0.01 | 100 | 1014.8 |
| 20260509165048 | 67 | 168 | 0.0 | 0.0 | 0.00 | 0.07 | 0.01 | 100 | 1015.1 |
| 20260509164042 | 67 | 168 | 0.0 | 0.0 | 0.00 | 0.07 | 0.01 | 100 | 1015.1 |
| 20260509163055 | 67 | 168 | 0.0 | 1.0 | 0.01 | 0.07 | 0.01 | 100 | 1015.1 |
| 20260509162050 | 68 | 168 | 0.0 | 1.0 | 0.01 | 0.07 | 0.01 | 100 | 1015.3 |
| 20260509161104 | 68 | 169 | 0.0 | 1.0 | 0.01 | 0.07 | 0.01 | 100 | 1015.3 |
| 20260509160108 | 68 | 170 | 0.0 | 1.0 | 0.01 | 0.07 | 0.01 | 99 | 1015.3 |
| 20260509155051 | 68 | 170 | 0.0 | 1.0 | 0.01 | 0.07 | 0.01 | 98 | 1015.3 |
| 20260509154104 | 69 | 170 | 0.0 | 1.0 | 0.01 | 0.07 | 0.01 | 97 | 1015.3 |
| 20260509153116 | 70 | 360 | 0.0 | 2.0 | 0.00 | 0.06 | 0.00 | 97 | 1015.0 |
| 20260509152051 | 70 | 351 | 0.0 | 1.0 | 0.00 | 0.06 | 0.00 | 98 | 1014.9 |
| 20260509151107 | 70 | 288 | 0.0 | 0.0 | 0.00 | 0.06 | 0.00 | 98 | 1014.5 |
| 20260509150110 | 70 | 288 | 0.0 | 0.0 | 0.00 | 0.06 | 0.00 | 99 | 1014.4 |
| 20260509145052 | 70 | 288 | 0.0 | 0.0 | 0.00 | 0.06 | 0.00 | 99 | 1014.0 |
| 20260509144045 | 69 | 201 | 0.0 | 0.0 | 0.00 | 0.06 | 0.00 | 99 | 1014.0 |
| 20260509143039 | 69 | 201 | 0.0 | 0.0 | 0.00 | 0.06 | 0.00 | 99 | 1014.0 |
| 20260509142052 | 68 | 201 | 0.0 | 0.0 | 0.00 | 0.06 | 0.00 | 100 | 1013.7 |
| 20260509141046 | 68 | 201 | 0.0 | 0.0 | 0.00 | 0.06 | 0.00 | 100 | 1013.7 |
| 20260509140110 | 67 | 200 | 0.0 | 0.0 | 0.00 | 0.06 | 0.00 | 100 | 1013.7 |
| 20260509135050 | 67 | 200 | 0.0 | 0.0 | 0.00 | 0.06 | 0.00 | 100 | 1013.8 |
| 20260509134049 | 67 | 200 | 0.0 | 0.0 | 0.00 | 0.06 | 0.00 | 100 | 1013.8 |
| 20260509133102 | 66 | 200 | 0.0 | 0.0 | 0.00 | 0.06 | 0.00 | 100 | 1014.0 |
| 20260509132055 | 66 | 200 | 0.0 | 0.0 | 0.00 | 0.06 | 0.00 | 100 | 1013.9 |
| 20260509131048 | 66 | 200 | 0.0 | 0.0 | 0.00 | 0.06 | 0.00 | 100 | 1013.9 |
| 20260509130111 | 65 | 200 | 0.0 | 0.0 | 0.00 | 0.06 | 0.00 | 100 | 1013.3 |
| 20260509125113 | 65 | 200 | 0.0 | 0.0 | 0.00 | 0.06 | 0.00 | 100 | 1013.2 |
| 20260509124047 | 65 | 200 | 0.0 | 0.0 | 0.00 | 0.06 | 0.00 | 100 | 1013.3 |
| 20260509123041 | 65 | 16 | 0.0 | 0.0 | 0.00 | 0.06 | 0.00 | 100 | 1013.2 |
| 20260509122054 | 65 | 16 | 0.0 | 0.0 | 0.00 | 0.06 | 0.00 | 100 | 1013.0 |
| 20260509121049 | 65 | 16 | 0.0 | 0.0 | 0.00 | 0.06 | 0.00 | 100 | 1013.0 |
| 20260509120116 | 65 | 16 | 0.0 | 0.0 | 0.00 | 0.06 | 0.00 | 100 | 1013.1 |
| 20260509115102 | 65 | 16 | 0.0 | 0.0 | 0.00 | 0.07 | 0.00 | 100 | 1013.0 |
| 20260509114055 | 64 | 309 | 0.0 | 0.0 | 0.00 | 0.07 | 0.00 | 100 | 1012.6 |
| 20260509113048 | 64 | 309 | 0.0 | 0.0 | 0.00 | 0.07 | 0.00 | 100 | 1012.3 |
| 20260509112041 | 64 | 309 | 0.0 | 0.0 | 0.00 | 0.07 | 0.00 | 100 | 1012.2 |
| 20260509111054 | 64 | 309 | 0.0 | 0.0 | 0.00 | 0.07 | 0.00 | 100 | 1012.2 |
| 20260509110117 | 64 | 306 | 0.0 | 0.0 | 0.00 | 0.07 | 0.00 | 100 | 1012.5 |
| 20260509105059 | 64 | 306 | 0.0 | 0.0 | 0.00 | 0.07 | 0.00 | 100 | 1012.7 |
| 20260509104052 | 64 | 127 | 0.0 | 0.0 | 0.00 | 0.07 | 0.00 | 100 | 1012.4 |
| 20260509103044 | 64 | 127 | 0.0 | 0.0 | 0.00 | 0.07 | 0.00 | 100 | 1012.3 |
| 20260509102042 | 64 | 127 | 0.0 | 0.0 | 0.00 | 0.07 | 0.00 | 100 | 1012.3 |
| 20260509101056 | 64 | 127 | 0.0 | 0.0 | 0.00 | 0.07 | 0.00 | 100 | 1012.0 |
| 20260509100120 | 64 | 127 | 0.0 | 0.0 | 0.00 | 0.07 | 0.00 | 100 | 1011.8 |
| 20260509095102 | 64 | 127 | 0.0 | 0.0 | 0.00 | 0.07 | 0.00 | 100 | 1012.1 |
| 20260509094054 | 64 | 127 | 0.0 | 0.0 | 0.00 | 0.07 | 0.00 | 100 | 1012.1 |
| 20260509093048 | 64 | 127 | 0.0 | 0.0 | 0.00 | 0.07 | 0.00 | 100 | 1012.1 |
| 20260509092043 | 64 | 127 | 0.0 | 0.0 | 0.00 | 0.07 | 0.00 | 100 | 1012.3 |
| 20260509091056 | 64 | 127 | 0.0 | 0.0 | 0.00 | 0.07 | 0.00 | 100 | 1012.0 |
| 20260509090122 | 64 | 127 | 0.0 | 0.0 | 0.00 | 0.07 | 0.00 | 100 | 1011.8 |
| 20260509085105 | 65 | 127 | 0.0 | 0.0 | 0.00 | 0.07 | 0.00 | 100 | 1011.9 |
| 20260509084102 | 65 | 127 | 0.0 | 0.0 | 0.00 | 0.07 | 0.00 | 100 | 1012.1 |
| 20260509083052 | 65 | 127 | 0.0 | 0.0 | 0.00 | 0.07 | 0.00 | 99 | 1011.3 |
| 20260509082045 | 65 | 127 | 0.0 | 0.0 | 0.00 | 0.07 | 0.00 | 99 | 1011.7 |
| 20260509081039 | 65 | 127 | 0.0 | 0.0 | 0.00 | 0.07 | 0.00 | 97 | 1011.6 |
| 20260509080123 | 65 | 127 | 0.0 | 1.0 | 0.00 | 0.07 | 0.00 | 97 | 1011.4 |
| 20260509075046 | 65 | 127 | 0.0 | 0.0 | 0.00 | 0.07 | 0.00 | 97 | 1011.4 |
| 20260509074038 | 65 | 127 | 0.0 | 1.0 | 0.00 | 0.07 | 0.00 | 98 | 1011.3 |
| 20260509073051 | 65 | 127 | 1.0 | 4.0 | 0.00 | 0.07 | 0.00 | 98 | 1011.3 |
| 20260509072044 | 65 | 117 | 0.0 | 5.0 | 0.00 | 0.07 | 0.00 | 99 | 1011.3 |
| 20260509071059 | 64 | 113 | 1.0 | 4.0 | 0.00 | 0.07 | 0.00 | 100 | 1011.1 |
| 20260509070123 | 64 | 114 | 0.0 | 2.0 | 0.00 | 0.07 | 0.00 | 100 | 1011.8 |
| 20260509065048 | 64 | 142 | 0.0 | 4.0 | 0.00 | 0.07 | 0.00 | 100 | 1012.1 |
| 20260509064040 | 64 | 105 | 1.0 | 4.0 | 0.00 | 0.07 | 0.00 | 100 | 1012.1 |
| 20260509063053 | 64 | 131 | 0.0 | 2.0 | 0.00 | 0.07 | 0.00 | 100 | 1012.7 |
| 20260509062107 | 64 | 134 | 0.0 | 4.0 | 0.00 | 0.07 | 0.00 | 100 | 1012.8 |
| 20260509061039 | 64 | 132 | 0.0 | 2.0 | 0.00 | 0.07 | 0.00 | 100 | 1013.2 |
| 20260509060143 | 64 | 103 | 0.0 | 1.0 | 0.00 | 0.07 | 0.00 | 100 | 1013.4 |
| 20260509055105 | 65 | 101 | 0.0 | 0.0 | 0.00 | 0.07 | 0.00 | 100 | 1014.1 |
| 20260509054037 | 65 | 101 | 0.0 | 0.0 | 0.00 | 0.07 | 0.00 | 100 | 1014.3 |
| 20260509053050 | 65 | 101 | 0.0 | 0.0 | 0.00 | 0.07 | 0.00 | 100 | 1014.7 |
| 20260509052046 | 65 | 101 | 0.0 | 0.0 | 0.00 | 0.07 | 0.00 | 100 | 1015.1 |
| 20260509051038 | 65 | 101 | 0.0 | 0.0 | 0.00 | 0.07 | 0.00 | 100 | 1014.9 |
| 20260509050124 | 64 | 101 | 0.0 | 0.0 | 0.00 | 0.07 | 0.00 | 100 | 1014.9 |
| 20260509045106 | 64 | 101 | 0.0 | 0.0 | 0.00 | 0.07 | 0.00 | 100 | 1014.8 |
| 20260509044038 | 64 | 101 | 0.0 | 0.0 | 0.00 | 0.07 | 0.00 | 100 | 1014.6 |
| 20260509043050 | 64 | 101 | 0.0 | 0.0 | 0.00 | 0.07 | 0.00 | 100 | 1014.5 |
| 20260509042043 | 64 | 101 | 0.0 | 1.0 | 0.00 | 0.07 | 0.00 | 100 | 1014.5 |
| 20260509041115 | 64 | 101 | 0.0 | 2.0 | 0.00 | 0.07 | 0.00 | 100 | 1014.5 |
| 20260509040119 | 65 | 157 | 0.0 | 1.0 | 0.00 | 0.07 | 0.00 | 100 | 1014.4 |
| 20260509035041 | 65 | 157 | 0.0 | 0.0 | 0.00 | 0.07 | 0.07 | 100 | 1014.4 |
| 20260509034038 | 65 | 157 | 0.0 | 0.0 | 0.00 | 0.07 | 0.07 | 100 | 1014.6 |
| 20260509033050 | 65 | 157 | 0.0 | 0.0 | 0.00 | 0.07 | 0.07 | 100 | 1014.8 |
| 20260509032044 | 65 | 157 | 0.0 | 0.0 | 0.00 | 0.07 | 0.07 | 100 | 1014.8 |
| 20260509031037 | 65 | 157 | 0.0 | 2.0 | 0.00 | 0.07 | 0.07 | 100 | 1015.2 |
| 20260509030121 | 65 | 44 | 0.0 | 2.0 | 0.00 | 0.07 | 0.07 | 100 | 1015.3 |
| 20260509025046 | 65 | 40 | 0.0 | 0.0 | 0.00 | 0.07 | 0.07 | 100 | 1015.5 |
| 20260509024042 | 65 | 39 | 0.0 | 0.0 | 0.00 | 0.07 | 0.07 | 100 | 1015.2 |
| 20260509023055 | 65 | 40 | 0.0 | 0.0 | 0.00 | 0.07 | 0.07 | 100 | 1015.1 |
| 20260509022047 | 65 | 40 | 0.0 | 0.0 | 0.00 | 0.07 | 0.07 | 100 | 1015.1 |
| 20260509021042 | 65 | 40 | 0.0 | 0.0 | 0.00 | 0.07 | 0.07 | 100 | 1015.1 |
| 20260509020125 | 65 | 40 | 0.0 | 0.0 | 0.00 | 0.07 | 0.07 | 100 | 1014.9 |
| 20260509015049 | 65 | 40 | 0.0 | 0.0 | 0.00 | 0.07 | 0.07 | 100 | 1015.1 |
| 20260509014102 | 65 | 40 | 0.0 | 0.0 | 0.00 | 0.07 | 0.07 | 100 | 1015.4 |
| 20260509013055 | 65 | 40 | 0.0 | 0.0 | 0.00 | 0.07 | 0.07 | 100 | 1015.2 |
| 20260509012049 | 65 | 40 | 0.0 | 0.0 | 0.00 | 0.07 | 0.07 | 100 | 1015.1 |
| 20260509011042 | 66 | 40 | 0.0 | 0.0 | 0.00 | 0.07 | 0.07 | 100 | 1015.1 |
| 20260509010107 | 66 | 40 | 0.0 | 0.0 | 0.00 | 0.07 | 0.07 | 100 | 1015.3 |
| 20260509005050 | 66 | 40 | 0.0 | 0.0 | 0.00 | 0.07 | 0.07 | 100 | 1015.1 |
| 20260509004048 | 66 | 40 | 0.0 | 0.0 | 0.00 | 0.07 | 0.07 | 100 | 1015.0 |
| 20260509003040 | 66 | 39 | 0.0 | 0.0 | 0.01 | 0.07 | 0.07 | 100 | 1014.9 |
| 20260509002053 | 66 | 40 | 0.0 | 0.0 | 0.01 | 0.07 | 0.07 | 100 | 1014.9 |
| 20260509001045 | 66 | 40 | 0.0 | 0.0 | 0.02 | 0.07 | 0.07 | 100 | 1014.7 |
| 20260509000110 | 67 | 40 | 0.0 | 0.0 | 0.04 | 0.07 | 0.07 | 100 | 1014.8 |
| 20260508235113 | 67 | 40 | 0.0 | 0.0 | 0.06 | 0.07 | 0.07 | 100 | 1014.9 |
| 20260508234106 | 67 | 40 | 0.0 | 0.0 | 0.06 | 0.07 | 0.07 | 99 | 1014.8 |
| 20260508233058 | 68 | 40 | 0.0 | 1.0 | 0.05 | 0.06 | 0.06 | 98 | 1015.1 |
| 20260508232049 | 69 | 40 | 0.0 | 2.0 | 0.05 | 0.06 | 0.06 | 97 | 1015.3 |
| 20260508231041 | 70 | 32 | 0.0 | 5.0 | 0.04 | 0.05 | 0.05 | 94 | 1015.1 |
| 20260508230139 | 73 | 10 | 1.0 | 4.0 | 0.02 | 0.03 | 0.03 | 91 | 1014.5 |
| 20260508225101 | 74 | 139 | 0.0 | 0.0 | 0.00 | 0.01 | 0.01 | 95 | 1014.1 |
| 20260508224038 | 75 | 139 | 0.0 | 0.0 | 0.00 | 0.01 | 0.01 | 93 | 1013.6 |
| 20260508223053 | 76 | 139 | 0.0 | 0.0 | 0.00 | 0.01 | 0.01 | 93 | 1013.4 |
| 20260508222046 | 76 | 139 | 0.0 | 0.0 | 0.00 | 0.01 | 0.01 | 90 | 1013.1 |
| 20260508221039 | 76 | 139 | 0.0 | 0.0 | 0.00 | 0.01 | 0.01 | 88 | 1013.0 |
| 20260508220123 | 76 | 139 | 0.0 | 0.0 | 0.00 | 0.01 | 0.01 | 88 | 1012.8 |
| 20260508215045 | 76 | 139 | 0.0 | 0.0 | 0.00 | 0.01 | 0.01 | 88 | 1012.8 |
| 20260508214059 | 77 | 139 | 0.0 | 0.0 | 0.00 | 0.01 | 0.01 | 88 | 1012.5 |
| 20260508213053 | 77 | 139 | 0.0 | 0.0 | 0.00 | 0.01 | 0.01 | 88 | 1012.6 |
| 20260508212048 | 77 | 139 | 0.0 | 0.0 | 0.00 | 0.01 | 0.01 | 88 | 1012.4 |
| 20260508211045 | 77 | 139 | 0.0 | 0.0 | 0.00 | 0.01 | 0.01 | 88 | 1012.4 |
| 20260508210129 | 78 | 139 | 0.0 | 0.0 | 0.00 | 0.01 | 0.01 | 86 | 1012.6 |
| 20260508205053 | 78 | 139 | 0.0 | 0.0 | 0.00 | 0.01 | 0.01 | 87 | 1012.6 |
| 20260508204045 | 78 | 139 | 0.0 | 1.0 | 0.00 | 0.01 | 0.01 | 85 | 1012.7 |
| 20260508203041 | 79 | 139 | 0.0 | 1.0 | 0.00 | 0.01 | 0.01 | 82 | 1013.0 |
| 20260508202054 | 79 | 139 | 0.0 | 1.0 | 0.00 | 0.01 | 0.01 | 83 | 1013.0 |
| 20260508201108 | 79 | 139 | 0.0 | 1.0 | 0.00 | 0.01 | 0.01 | 82 | 1013.1 |
| 20260508200109 | 79 | 138 | 0.0 | 2.0 | 0.00 | 0.01 | 0.01 | 82 | 1013.4 |
| 20260508195053 | 78 | 113 | 0.0 | 2.0 | 0.00 | 0.02 | 0.01 | 82 | 1013.2 |
| 20260508194045 | 78 | 112 | 0.0 | 2.0 | 0.00 | 0.02 | 0.01 | 82 | 1013.4 |
| 20260508193043 | 78 | 112 | 0.0 | 2.0 | 0.00 | 0.02 | 0.01 | 81 | 1013.5 |
| 20260508192055 | 78 | 111 | 0.0 | 2.0 | 0.00 | 0.02 | 0.01 | 82 | 1013.6 |
| 20260508191049 | 78 | 106 | 0.0 | 2.0 | 0.00 | 0.02 | 0.01 | 82 | 1013.8 |
| 20260508190112 | 77 | 100 | 0.0 | 1.0 | 0.00 | 0.02 | 0.01 | 83 | 1013.7 |
| 20260508185052 | 77 | 147 | 0.0 | 4.0 | 0.00 | 0.03 | 0.01 | 84 | 1014.0 |
| 20260508184045 | 76 | 147 | 1.0 | 4.0 | 0.00 | 0.03 | 0.01 | 83 | 1014.2 |
| 20260508183057 | 75 | 146 | 0.0 | 1.0 | 0.00 | 0.03 | 0.01 | 85 | 1014.5 |